| time (UTC) | temp C | wind direction | speed KPH | gust KPH | rain 1hr cm | rain 24hr cm | rain mn cm | humidity % | barometer mb |
| 20260504214510 | 21 | 69 | 3.2 | 11.3 | 0.00 | 0.00 | 0.00 | 30 | 1003.5 |
| 20260504213009 | 21 | 246 | 1.6 | 9.7 | 0.00 | 0.00 | 0.00 | 30 | 1003.6 |
| 20260504211506 | 21 | 342 | 0.0 | 8.0 | 0.00 | 0.00 | 0.00 | 31 | 1003.6 |
| 20260504210006 | 21 | 61 | 1.6 | 11.3 | 0.00 | 0.00 | 0.00 | 33 | 1003.6 |
| 20260504204507 | 21 | 360 | 1.6 | 11.3 | 0.00 | 0.00 | 0.00 | 31 | 1003.6 |
| 20260504203004 | 21 | 30 | 0.0 | 9.7 | 0.00 | 0.00 | 0.00 | 30 | 1003.5 |
| 20260504201504 | 21 | 264 | 1.6 | 11.3 | 0.00 | 0.00 | 0.00 | 28 | 1003.6 |
| 20260504200005 | 21 | 317 | 1.6 | 8.0 | 0.00 | 0.00 | 0.00 | 29 | 1003.7 |
| 20260504194502 | 21 | 9 | 1.6 | 8.0 | 0.00 | 0.00 | 0.00 | 30 | 1004.0 |
| 20260504193002 | 21 | 292 | 1.6 | 14.5 | 0.00 | 0.00 | 0.00 | 30 | 1004.1 |
| 20260504191559 | 21 | 290 | 3.2 | 9.7 | 0.00 | 0.00 | 0.00 | 29 | 1004.1 |
| 20260504190108 | 21 | 106 | 3.2 | 14.5 | 0.00 | 0.00 | 0.00 | 32 | 1004.6 |
| 20260504184558 | 21 | 128 | 1.6 | 12.9 | 0.00 | 0.00 | 0.00 | 32 | 1004.6 |
| 20260504183102 | 21 | 284 | 1.6 | 14.5 | 0.00 | 0.00 | 0.00 | 32 | 1004.6 |
| 20260504181556 | 20 | 210 | 1.6 | 9.7 | 0.00 | 0.00 | 0.00 | 34 | 1005.0 |
| 20260504180136 | 20 | 338 | 1.6 | 9.7 | 0.00 | 0.00 | 0.00 | 36 | 1005.1 |
| 20260504174553 | 20 | 194 | 3.2 | 12.9 | 0.00 | 0.00 | 0.00 | 37 | 1005.4 |
| 20260504173052 | 19 | 258 | 1.6 | 9.7 | 0.00 | 0.00 | 0.00 | 32 | 1005.4 |
| 20260504171553 | 20 | 20 | 0.0 | 11.3 | 0.00 | 0.00 | 0.00 | 32 | 1005.7 |
| 20260504100117 | 7 | 286 | 0.0 | 3.2 | 0.00 | 0.00 | 0.00 | 53 | 1008.2 |
| 20260504081552 | 9 | 219 | 0.0 | 4.8 | 0.00 | 0.00 | 0.00 | 48 | 1007.8 |
| 20260504044544 | 9 | 344 | 0.0 | 3.2 | 0.00 | 0.00 | 0.00 | 47 | 1007.3 |
| 20260504043054 | 8 | 344 | 0.0 | 1.6 | 0.00 | 0.00 | 0.00 | 47 | 1007.2 |
| 20260504041541 | 8 | 344 | 0.0 | 3.2 | 0.00 | 0.00 | 0.00 | 49 | 1006.9 |
| 20260504040041 | 8 | 346 | 0.0 | 3.2 | 0.00 | 0.00 | 0.00 | 48 | 1006.9 |
| 20260504034547 | 8 | 346 | 0.0 | 1.6 | 0.00 | 0.00 | 0.00 | 49 | 1006.8 |
| 20260504033041 | 8 | 346 | 0.0 | 3.2 | 0.00 | 0.00 | 0.00 | 50 | 1006.8 |
| 20260504031540 | 8 | 346 | 0.0 | 1.6 | 0.00 | 0.00 | 0.00 | 49 | 1006.8 |
| 20260504030046 | 8 | 346 | 0.0 | 1.6 | 0.00 | 0.00 | 0.00 | 49 | 1006.8 |
| 20260504024539 | 8 | 346 | 0.0 | 1.6 | 0.00 | 0.00 | 0.00 | 51 | 1006.8 |
| 20260504023039 | 7 | 333 | 0.0 | 1.6 | 0.00 | 0.00 | 0.00 | 54 | 1006.8 |
| 20260504021538 | 7 | 333 | 0.0 | 1.6 | 0.00 | 0.00 | 0.00 | 54 | 1006.8 |
| 20260504020048 | 7 | 333 | 0.0 | 1.6 | 0.00 | 0.00 | 0.00 | 53 | 1006.8 |
| 20260504014547 | 8 | 333 | 0.0 | 1.6 | 0.00 | 0.00 | 0.00 | 50 | 1006.8 |
| 20260504013038 | 8 | 333 | 0.0 | 1.6 | 0.00 | 0.00 | 0.00 | 50 | 1006.6 |
| 20260504011537 | 8 | 333 | 0.0 | 1.6 | 0.00 | 0.00 | 0.00 | 48 | 1006.3 |
| 20260504010036 | 8 | 333 | 0.0 | 0.0 | 0.00 | 0.00 | 0.00 | 49 | 1006.3 |
| 20260504004536 | 9 | 333 | 0.0 | 0.0 | 0.00 | 0.00 | 0.00 | 46 | 1006.2 |
| 20260504003036 | 10 | 333 | 0.0 | 0.0 | 0.00 | 0.00 | 0.00 | 44 | 1005.9 |
| 20260504001539 | 11 | 333 | 0.0 | 0.0 | 0.00 | 0.00 | 0.00 | 42 | 1005.7 |
| 20260504000038 | 12 | 333 | 0.0 | 0.0 | 0.00 | 0.00 | 0.00 | 35 | 1005.5 |
| 20260503234535 | 12 | 333 | 0.0 | 1.6 | 0.00 | 0.00 | 0.00 | 33 | 1005.2 |
| 20260503233035 | 13 | 333 | 0.0 | 4.8 | 0.00 | 0.00 | 0.00 | 31 | 1005.1 |
| 20260503231535 | 13 | 218 | 0.0 | 3.2 | 0.00 | 0.00 | 0.00 | 29 | 1005.0 |
| 20260503230034 | 13 | 303 | 0.0 | 4.8 | 0.00 | 0.00 | 0.00 | 27 | 1004.8 |
| 20260503224534 | 13 | 219 | 1.6 | 4.8 | 0.00 | 0.00 | 0.00 | 27 | 1004.7 |
| 20260503223034 | 14 | 349 | 3.2 | 14.5 | 0.00 | 0.00 | 0.00 | 27 | 1004.7 |
| 20260503221535 | 14 | 315 | 3.2 | 11.3 | 0.00 | 0.00 | 0.00 | 25 | 1004.7 |
| 20260503220035 | 14 | 323 | 1.6 | 11.3 | 0.00 | 0.00 | 0.00 | 27 | 1004.8 |